Miscellaneous Local Product
Issued by NWS North Platte, NE

Home | Current Version | Previous Version | Text Only | Print | Product List | Glossary On
Versions: 1 2 3 4 5 6 7 8 9 10 11 12 13 14 15 16 17 18 19 20 21 22 23 24 25 26 27 28 29 30 31 32 33 34 35 36 37 38 39 40 41 42 43 44 45 46 47 48 49 50
000
AXUS43 KLBF 240010
MISLBF


WESTERN AND NORTH CENTRAL NEBRASKA HOURLY WEATHER ROUNDUP
NATIONAL WEATHER SERVICE NORTH PLATTE NE
700 PM CDT THU APR 23 2015

***STATIONS NOT REPORTING VARIABLES SUCH AS SKY/WEATHER OR
PRESSURE ARE PROVIDED BY THE NEBRASKA DEPARTMENT OF
ROADS...RAWS...AND APRS NETWORKS...AND ARE NOT UNDER
NATIONAL WEATHER SERVICE QUALITY CONTROL***

...OBSERVATIONS IN AND NEAR THE EASTERN PANHANDLE OF NEBRASKA...

CITY           SKY/WX    TMP DP  RH WIND       PRES   REMARKS
PINE RIDGE     PTSUNNY   66  45  46 S22G30    29.62S
CHADRON        CLOUDY    70  41  34 SW9       29.61S
ALLIANCE       CLOUDY    66  33  29 S17       29.68F
SIDNEY         CLOUDY    58  40  51 E24G31    29.74F
WHITECLAY        N/A     67  45  45 S21         N/A
BIG SPRINGS      N/A     70  47  43 SE13        N/A
$$

...OBSERVATIONS IN NORTH CENTRAL NEBRASKA...

CITY           SKY/WX    TMP DP  RH WIND       PRES   REMARKS
VALENTINE      MOSUNNY   67  44  43 S20G28    29.71F
THEDFORD       PTSUNNY   67  47  49 S17G25    29.74F
AINSWORTH      PTSUNNY   64  43  46 S18       29.75F
O`NEILL        MOSUNNY   66  36  33 S22G29    29.80F
ORD            PTSUNNY   64  40  41 S20       29.80F
BROKEN BOW     PTSUNNY   64  41  42 S21G28    29.79F
BROWNLEE         N/A     67  43  40 S21         N/A
VALENTINE NWR    N/A     65  42  43 S20G26      N/A
SPRINGVIEW       N/A     66  44  45 S9G22       N/A
HALSEY           N/A     65  44  46 SE10G22     N/A
BREWSTER         N/A     69  45  41 S21         N/A
ROSE             N/A     67  47  47 E20         N/A
NEWPORT          N/A     65  42  42 S12         N/A
SARGENT          N/A     63  42  47 S7          N/A
COMSTOCK         N/A     70  44  39 S17         N/A
EWING            N/A     64  36  35 S10         N/A
$$

...OBSERVATIONS IN SOUTHWEST NEBRASKA AND FAR NORTHEAST COLORADO...

CITY           SKY/WX    TMP DP  RH WIND       PRES   REMARKS
WRAY           FAIR      71  34  25 SE20      29.69F
HOLYOKE        FAIR      72  52  49 SE22G28   29.68F
IMPERIAL       CLOUDY    67  51  56 SE23G31   29.72S
OGALLALA       PTSUNNY   67  48  50 SE8       29.74R
NORTH PLATTE   MOSUNNY   67  48  50 S18G28    29.75S
MCCOOK         CLOUDY    66  50  56 SE18G28   29.77R
LEXINGTON      MOSUNNY   65  44  47 S18G26    29.79S
PAXTON           N/A     70  49  47 SE15        N/A
SUTHERLAND       N/A     67  50  53 S15         N/A
BRADY            N/A     65  49  55 E3          N/A
GOTHENBURG       N/A     67  44  43 SE16        N/A
CALLAWAY         N/A     67  49  52 SE24        N/A
$$

...NORTH PLATTE AREA...

CITY           SKY/WX    TMP DP  RH WIND       PRES   REMARKS
AIRPORT        MOSUNNY   67  48  50 S18G28    29.75S
DOWNTOWN         N/A     66  50  56 SE13G24     N/A
$$

...SOME WEATHER OBSERVATIONS FROM AROUND THE REGION...

CITY           SKY/WX    TMP DP  RH WIND       PRES   REMARKS
DENVER         CLOUDY    62  32  32 SE16      29.75F
LARAMIE        CLOUDY    48  31  51 W9        29.81F
CHEYENNE       PTSUNNY   60  30  32 SW14      29.78F
SCOTTSBLUFF    CLOUDY    66  37  34 SE17      29.67F
RAPID CITY     LGT RAIN  59  48  67 E12       29.63F
PIERRE         PTSUNNY   71  44  37 SE20G25   29.66F
WINNER         FAIR      70  42  36 S22G33    29.71F
SIOUX FALLS    PTSUNNY   62  27  26 S18       29.87F
OMAHA          PTSUNNY   64  31  28 SE17      29.92F
GRAND ISLAND   CLOUDY    63  37  38 S18G28    29.85F
KANSAS CITY    SUNNY     63  33  32 S12       29.96F
WICHITA        PTSUNNY   64  47  53 SE15      29.89F
HAYS           CLOUDY    63  45  51 SE18G26   29.83F
LIBERAL        SUNNY     68  52  56 SE18      29.79F
GOODLAND       CLOUDY    64  50  60 S18G25    29.76S
$$



USA.gov is the U.S. government's official web portal to all federal, state and local government web resources and services.